TimeMST,TemperatureF,Dew PointF,Humidity,Sea Level PressureIn,VisibilityMPH,Wind Direction,Wind SpeedMPH,Gust SpeedMPH,PrecipitationIn,Events,Conditions,WindDirDegrees,DateUTC
12:15 AM,62.6,37.4,39,30.13,10.0,ENE,6.9,-,N/A,,Partly Cloudy,70,2012-12-05 07:15:00
12:35 AM,59.0,37.4,45,30.13,10.0,NNE,5.8,-,N/A,,Clear,30,2012-12-05 07:35:00
12:55 AM,59.0,33.8,39,30.12,10.0,NNE,6.9,-,N/A,,Partly Cloudy,20,2012-12-05 07:55:00
1:15 AM,57.2,33.8,41,30.11,10.0,North,6.9,-,N/A,,Clear,10,2012-12-05 08:15:00
1:35 AM,57.2,33.8,41,30.12,10.0,NNE,5.8,-,N/A,,Clear,30,2012-12-05 08:35:00
1:55 AM,55.4,32.0,41,30.11,10.0,North,10.4,-,N/A,,Clear,10,2012-12-05 08:55:00
2:15 AM,55.4,33.8,44,30.11,10.0,North,9.2,-,N/A,,Clear,360,2012-12-05 09:15:00
2:35 AM,55.4,33.8,44,30.11,10.0,North,6.9,-,N/A,,Clear,350,2012-12-05 09:35:00
2:55 AM,53.6,32.0,44,30.12,10.0,North,5.8,-,N/A,,Clear,350,2012-12-05 09:55:00
3:15 AM,53.6,32.0,44,30.11,10.0,North,6.9,-,N/A,,Clear,350,2012-12-05 10:15:00
3:35 AM,51.8,32.0,47,30.10,10.0,North,6.9,-,N/A,,Clear,360,2012-12-05 10:35:00
3:55 AM,51.8,32.0,47,30.10,10.0,North,6.9,-,N/A,,Unknown,350,2012-12-05 10:55:00
4:15 AM,51.8,32.0,47,30.10,10.0,North,8.1,-,N/A,,Unknown,350,2012-12-05 11:15:00
4:35 AM,50.0,32.0,50,30.10,10.0,NNE,6.9,-,N/A,,Clear,20,2012-12-05 11:35:00
4:55 AM,50.0,32.0,50,30.09,10.0,North,5.8,-,N/A,,Clear,360,2012-12-05 11:55:00
5:15 AM,50.0,32.0,50,30.09,5.0,East,5.8,-,N/A,,Clear,90,2012-12-05 12:15:00
5:35 AM,50.0,37.4,62,30.09,10.0,SE,4.6,-,N/A,,Clear,130,2012-12-05 12:35:00
5:55 AM,50.0,37.4,62,30.09,10.0,Calm,Calm,-,N/A,,Clear,0,2012-12-05 12:55:00
7:55 AM,48.2,33.8,58,30.10,10.0,East,3.5,-,N/A,,Clear,100,2012-12-05 14:55:00
8:15 AM,50.0,37.4,62,30.10,9.0,SE,6.9,-,N/A,,Clear,130,2012-12-05 15:15:00
8:35 AM,53.6,39.2,58,30.10,9.0,SE,4.6,-,N/A,,Clear,140,2012-12-05 15:35:00
8:55 AM,53.6,39.2,58,30.11,8.0,Calm,Calm,-,N/A,,Clear,0,2012-12-05 15:55:00
9:15 AM,55.4,39.2,54,30.12,8.0,West,4.6,-,N/A,,Clear,280,2012-12-05 16:15:00
9:35 AM,59.0,35.6,42,30.11,10.0,Calm,Calm,-,N/A,,Clear,0,2012-12-05 16:35:00
9:55 AM,62.6,35.6,37,30.12,10.0,WNW,3.5,-,N/A,,Clear,290,2012-12-05 16:55:00
10:15 AM,64.4,35.6,34,30.11,10.0,SSW,3.5,-,N/A,,Clear,200,2012-12-05 17:15:00
10:35 AM,66.2,35.6,32,30.11,9.0,Calm,Calm,-,N/A,,Clear,0,2012-12-05 17:35:00
10:55 AM,66.2,39.2,37,30.10,9.0,SSE,4.6,-,N/A,,Clear,150,2012-12-05 17:55:00
11:15 AM,69.8,37.4,31,30.09,9.0,ESE,9.2,-,N/A,,Clear,120,2012-12-05 18:15:00
11:35 AM,73.4,37.4,27,30.08,10.0,ESE,10.4,-,N/A,,Clear,120,2012-12-05 18:35:00
12:15 PM,73.4,37.4,27,30.05,10.0,ESE,10.4,-,N/A,,Clear,110,2012-12-05 19:15:00
12:35 PM,75.2,37.4,25,30.04,10.0,ESE,10.4,-,N/A,,Clear,120,2012-12-05 19:35:00
12:55 PM,75.2,35.6,24,30.03,10.0,ESE,9.2,-,N/A,,Clear,120,2012-12-05 19:55:00
1:15 PM,77.0,33.8,21,30.01,10.0,ESE,10.4,-,N/A,,Clear,110,2012-12-05 20:15:00
1:35 PM,77.0,32.0,19,30.00,10.0,East,8.1,-,N/A,,Clear,100,2012-12-05 20:35:00
1:55 PM,77.0,35.6,22,29.99,10.0,ESE,9.2,-,N/A,,Clear,120,2012-12-05 20:55:00
2:15 PM,77.0,35.6,22,29.98,10.0,ESE,8.1,-,N/A,,Clear,120,2012-12-05 21:15:00
2:35 PM,77.0,33.8,21,29.98,10.0,ESE,6.9,-,N/A,,Clear,110,2012-12-05 21:35:00
2:55 PM,77.0,32.0,19,29.97,10.0,SE,5.8,-,N/A,,Clear,130,2012-12-05 21:55:00
3:15 PM,77.0,32.0,19,29.97,10.0,ESE,5.8,-,N/A,,Clear,110,2012-12-05 22:15:00
3:35 PM,77.0,32.0,19,29.97,10.0,South,3.5,-,N/A,,Clear,170,2012-12-05 22:35:00
3:55 PM,77.0,32.0,19,29.96,10.0,South,3.5,-,N/A,,Clear,170,2012-12-05 22:55:00
4:15 PM,77.0,33.8,21,29.96,10.0,South,3.5,-,N/A,,Clear,190,2012-12-05 23:15:00
4:35 PM,77.0,35.6,22,29.96,10.0,SSW,3.5,-,N/A,,Clear,200,2012-12-05 23:35:00
4:55 PM,75.2,35.6,24,29.96,10.0,Calm,Calm,-,N/A,,Clear,0,2012-12-05 23:55:00
5:15 PM,73.4,37.4,27,29.96,5.0,Calm,Calm,-,N/A,,Clear,0,2012-12-06 00:15:00
5:35 PM,71.6,35.6,27,29.95,7.0,Calm,Calm,-,N/A,,Clear,0,2012-12-06 00:35:00
5:55 PM,71.6,35.6,27,29.95,10.0,Calm,Calm,-,N/A,,Clear,0,2012-12-06 00:55:00
6:15 PM,66.2,32.0,28,29.95,10.0,Calm,Calm,-,N/A,,Clear,0,2012-12-06 01:15:00
6:35 PM,64.4,32.0,30,29.96,10.0,Calm,Calm,-,N/A,,Clear,0,2012-12-06 01:35:00
6:55 PM,64.4,32.0,30,29.96,10.0,Calm,Calm,-,N/A,,Clear,0,2012-12-06 01:55:00
7:15 PM,62.6,32.0,32,29.95,10.0,NE,4.6,-,N/A,,Clear,50,2012-12-06 02:15:00
7:35 PM,60.8,30.2,31,29.95,10.0,NNE,5.8,-,N/A,,Partly Cloudy,30,2012-12-06 02:35:00
7:55 PM,59.0,30.2,34,29.95,10.0,Calm,Calm,-,N/A,,Partly Cloudy,0,2012-12-06 02:55:00
8:15 PM,59.0,28.4,31,29.96,10.0,Calm,Calm,-,N/A,,Clear,0,2012-12-06 03:15:00
8:35 PM,59.0,28.4,31,29.96,10.0,North,9.2,-,N/A,,Clear,360,2012-12-06 03:35:00